Location: Gro�wechsungen
(51.4926°N, 10.6901°E)
Time: 07:19:48
(UTC+00:00)

USA 116 - Pass Details

Date: 18 September 2020
Orbit: 405 x 834 km, 97.9° (Epoch: 18 November)

Event Time Altitude Azimuth Distance (km) Brightness Sun altitude
Rises 18:16:25 0° 14° (NNE) 2,408 7.0 -8.9°
Reaches altitude 10° 18:18:21 10° 14° (NNE) 1,569 6.1 -9.2°
Maximum altitude 18:21:42 89° 272° (W) 477 3.4 -9.7°
Drops below altitude 10° 18:25:22 10° 196° (SSW) 1,722 6.3 -10.3°
Sets 18:27:34 0° 196° (SSW) 2,670 7.2 -10.6°
